This is the latest recevied weather packets stored in our database for station/object KE5QKR. If no packets are shown the sender has not sent any weather packets the latest 10 day(s).
| Time | Temp. | Humidity | Pressure | Rain* | Wind** | Luminosity | Snow |
|---|---|---|---|---|---|---|---|
| 1778248707 | 17.78° C | 95% | 1013.4 hPa | 0 mm | - | 55 W/m² | - |
| 1778248404 | 17.78° C | 95% | 1013.9 hPa | 0 mm | - | 34 W/m² | - |
| 1778248100 | 17.78° C | 95% | 1013.7 hPa | 0 mm | - | 32 W/m² | - |
| 1778247797 | 17.78° C | 94% | 1013.6 hPa | 0 mm | - | 22 W/m² | - |
| 1778247493 | 18.33° C | 94% | 1013.6 hPa | 0 mm | - | 29 W/m² | - |
| 1778247191 | 18.33° C | 94% | 1013.6 hPa | 0 mm | - | 39 W/m² | - |
| 1778246888 | 18.33° C | 94% | 1013.6 hPa | 0 mm | - | 41 W/m² | - |
| 1778246586 | 18.33° C | 94% | 1013.7 hPa | 0 mm | - | 21 W/m² | - |
| 1778246281 | 17.78° C | 94% | 1013.8 hPa | 0 mm | - | 23 W/m² | - |
| 1778245978 | 17.78° C | 94% | 1013.6 hPa | 0 mm | - | 20 W/m² | - |
| 1778245674 | 18.33° C | 94% | 1013.4 hPa | 0 mm | - | 28 W/m² | - |
| 1778245372 | 17.78° C | 94% | 1013.5 hPa | 0 mm | - | 22 W/m² | - |
| 1778245067 | 17.78° C | 94% | 1013.7 hPa | 0 mm | - | 34 W/m² | - |
| 1778244764 | 17.78° C | 94% | 1013.5 hPa | 0 mm | - | 21 W/m² | - |
| 1778244462 | 17.78° C | 95% | 1013.6 hPa | 0 mm | - | 24 W/m² | - |
| 1778244159 | 17.78° C | 94% | 1013.3 hPa | 0 mm | - | 23 W/m² | - |
| 1778243857 | 17.78° C | 95% | 1013.6 hPa | 0 mm | - | 19 W/m² | - |
| 1778243555 | 17.78° C | 95% | 1013.6 hPa | 0 mm | - | 10 W/m² | - |
| 1778243251 | 17.78° C | 95% | 1013.6 hPa | 0 mm | - | 11 W/m² | - |
| 1778242948 | 17.78° C | 95% | 1013.6 hPa | 0 mm | - | 17 W/m² | - |
| 1778242645 | 17.78° C | 95% | 1013.7 hPa | 0 mm | - | 18 W/m² | - |
| 1778242344 | 17.78° C | 95% | 1013.5 hPa | 0 mm | - | 11 W/m² | - |
| 1778242041 | 17.78° C | 95% | 1013.5 hPa | 0 mm | - | 12 W/m² | - |
| 1778241739 | 17.78° C | 95% | 1013.5 hPa | 0 mm | - | 11 W/m² | - |
| 1778241436 | 17.78° C | 95% | 1013.5 hPa | 0 mm | - | 7 W/m² | - |
* Rain latest hour (hover to see other rain measurements)
** Current wind speed in m/s (hover to see current wind gust speed)